Regional Weather Roundup
Issued by NWS Charleston, WV

Home | Current Version | Previous Version | Graphics & Text | Print | Product List | Glossary On
Versions: 1 2 3 4 5 6 7 8 9 10 11 12 13 14 15 16 17 18 19 20 21 22 23 24 25 26 27 28 29 30 31 32 33 34 35 36 37 38 39 40 41 42 43 44 45 46 47 48 49 50
000
ASUS41 KRLX 201510
RWRRLX
West Virginia Regional Weather Roundup
National Weather Service Charleston WV
1100 AM EDT THU JUL 20 2017

Note: "fair" indicates few or no clouds below 12,000 feet with no
significant weather and/or obstructions to visibility.

WVZ003-201600-
Northern Panhandle of West Virginia

CITY           SKY/WX    TMP DP  RH WIND       PRES   REMARKS
WHEELING       MOSUNNY   82  67  60 SW8       30.09F
$$

WVZ009-201600-
Northwest West Virginia

CITY           SKY/WX    TMP DP  RH WIND       PRES   REMARKS
PARKERSBURG    MOSUNNY   83  70  64 W7        30.13S
$$

WVZ006-201600-
Western West Virginia

CITY           SKY/WX    TMP DP  RH WIND       PRES   REMARKS
HUNTINGTON     SUNNY     84  71  65 VRB3      30.13S
$$

WVZ015-201600-
West Central West Virginia

CITY           SKY/WX    TMP DP  RH WIND       PRES   REMARKS
CHARLESTON     MOSUNNY   84  70  62 S7        30.12F
$$

WVZ022-031-201600-
North Central West Virginia

CITY           SKY/WX    TMP DP  RH WIND       PRES   REMARKS
CLARKSBURG     SUNNY     82  70  66 SW8       30.11F
MORGANTOWN     SUNNY     83  68  60 W6        30.12S
$$

WVZ025-035-042-045-201600-
Southern West Virginia

CITY           SKY/WX    TMP DP  RH WIND       PRES   REMARKS
BECKLEY        MOSUNNY   81  66  60 W10       30.22S
LOGAN            N/A     81  70  69 CALM      30.18F
BLUEFIELD      SUNNY     78  65  63 W6        30.25S
LEWISBURG      SUNNY     77  67  71 W5        30.21F
$$

WVZ047-201600-
Northern Mountains of West Virginia

CITY           SKY/WX    TMP DP  RH WIND       PRES   REMARKS
ELKINS         MOSUNNY   79  68  69 CALM      30.17F
$$

WVZ052-201600-
Eastern Panhandle of West Virginia

CITY           SKY/WX    TMP DP  RH WIND       PRES   REMARKS
MARTINSBURG    SUNNY     88  70  55 W7        30.05F
PETERSBURG     SUNNY     88  72  58 SE6       30.09F
$$



USA.gov is the U.S. government's official web portal to all federal, state and local government web resources and services.